Theta_e
309 309 309 309 309 309 308 308 308 308 308 308 308 308 307 307 306 306 305 305 304 303 302 301 299 298 297 296 295 295 294 294 294 294 294 294 295 295 295 295 295 295
309 308 308 308 308 309 308 308 308 308 308 308 308 307 307 306 306 305 305 305 304 304 303 302 301 299 297 296 295 295 294 294 294 294 294 294 294 294 295 295 295 295
308 308 308 308 308 309 308 308 308 308 308 307 307 307 306 306 305 305 305 304 304 304 303 302 302 300 298 297 295 295 294 294 294 294 294 294 294 294 294 294 294 295
308 308 308 307 307 307 307 307 308 308 308 308 308 308 307 306 305 305 304 304 304 303 303 302 302 301 300 298 296 295 294 294 294 294 293 293 294 294 294 294 294 294
308 307 308 307 307 307 306 307 307 307 308 308 308 308 307 307 306 305 305 304 304 303 303 302 301 301 300 299 297 296 294 294 293 293 293 293 293 293 293 293 293 294
308 307 307 307 306 306 306 306 306 307 307 307 307 308 307 307 307 307 306 305 304 304 303 302 302 301 300 299 298 296 295 294 293 293 293 293 293 293 293 293 293 293
307 307 307 306 306 306 306 306 306 306 306 306 306 306 307 307 307 307 306 305 304 304 303 303 302 301 300 300 298 297 296 294 293 293 292 292 292 292 293 293 293 293
306 306 306 305 305 305 306 306 305 305 305 305 305 305 305 305 306 307 306 306 304 303 303 303 302 301 301 300 299 298 297 295 294 293 292 292 292 292 292 292 292 292
304 304 304 304 304 304 305 305 305 305 304 305 305 305 304 304 304 305 306 306 305 303 303 302 302 302 301 300 300 299 298 296 295 294 292 292 292 292 292 292 292 292
304 304 304 304 304 304 305 305 305 305 305 305 304 304 304 304 303 302 303 304 304 304 303 302 302 302 302 301 300 299 298 297 296 295 293 292 292 292 292 292 292 292
305 304 304 305 305 305 306 305 305 305 306 306 304 303 303 303 303 302 301 302 303 304 305 304 303 302 302 301 301 299 298 297 296 295 294 293 292 292 292 291 292 292
304 304 304 305 305 305 305 305 305 305 305 305 304 303 303 303 303 303 302 301 301 303 304 304 303 302 302 302 301 300 299 298 297 296 295 294 292 292 291 291 291 291
304 304 304 304 305 305 304 304 304 304 304 303 303 303 302 302 302 302 302 301 301 301 302 303 303 302 301 301 301 300 299 298 297 297 296 295 293 292 291 291 291 291
304 304 302 302 302 302 303 302 302 302 302 302 302 301 301 301 301 301 301 301 300 300 300 300 301 301 300 300 299 299 299 298 298 297 296 295 294 292 291 291 291 291
302 302 301 300 299 300 300 300 300 301 301 301 301 301 300 300 300 299 299 299 298 298 299 299 299 300 300 300 299 299 299 299 298 297 296 296 294 293 291 291 291 290
299 299 299 298 297 297 298 298 298 299 299 299 300 300 300 299 299 298 298 297 297 297 297 298 298 299 299 299 299 298 299 298 298 297 297 296 295 293 292 291 290 290
299 299 298 298 296 296 296 296 297 297 298 298 298 298 298 298 298 298 298 297 296 296 296 297 297 298 298 298 297 297 297 297 297 297 296 295 294 294 293 291 290 290
298 299 298 298 297 296 295 294 295 295 296 296 297 297 297 297 297 297 297 297 296 295 295 296 297 297 297 296 296 296 296 296 296 296 296 295 294 294 293 292 290 290
296 296 297 298 298 297 295 294 293 294 294 295 295 295 296 296 296 296 296 296 296 295 295 295 296 296 296 295 295 295 295 295 295 295 295 295 294 294 293 292 290 290
294 295 295 296 297 297 297 295 294 293 293 293 294 294 294 295 295 295 295 295 295 295 295 295 295 295 295 295 294 294 294 294 294 295 295 294 293 292 292 291 291 290
292 293 294 295 296 297 297 297 296 294 292 292 293 293 293 294 294 294 294 294 294 294 294 294 294 295 294 294 294 293 294 294 293 294 294 293 292 291 291 290 290 289
290 291 292 293 294 295 296 297 297 296 294 292 291 292 292 292 293 293 293 293 294 293 293 294 294 294 293 293 293 292 293 293 292 292 292 292 291 290 290 289 289 289
289 289 290 291 292 293 295 296 297 297 296 293 291 291 291 291 292 292 292 293 293 293 293 293 293 293 293 292 292 292 292 292 292 292 291 291 291 290 289 289 288 288
288 288 289 289 290 291 292 294 295 296 297 295 292 291 290 290 291 291 292 292 292 292 292 292 292 292 292 292 292 291 291 291 291 291 291 290 290 289 288 288 288 287
287 288 288 288 289 289 290 291 293 295 296 295 294 292 291 290 290 290 290 291 291 291 291 291 291 291 291 291 291 291 290 290 290 290 290 290 289 288 288 287 287 286
286 286 287 287 287 288 289 290 291 292 294 295 295 293 291 290 290 290 290 290 290 290 290 290 290 290 290 290 290 290 289 289 289 289 289 289 289 288 287 287 286 286
Wind_Speed
36 37 38 38 39 40 40 41 42 43 43 43 43 43 42 42 42 43 43 43 45 46 47 49 49 49 48 48 47 47 46 45 44 43 42 41 40 38 36 34 32 31
37 38 38 38 39 39 40 41 41 42 43 42 42 42 41 41 42 41 41 41 43 45 45 47 48 49 49 49 48 48 47 46 45 44 44 42 41 39 37 35 34 33
38 39 40 40 40 40 40 41 42 43 43 43 42 42 42 42 42 41 41 41 42 43 44 45 46 48 49 49 49 48 48 47 47 46 45 44 42 40 39 37 36 35
38 39 41 42 42 42 42 43 43 43 43 43 42 42 42 42 42 42 41 41 41 42 43 44 45 47 48 49 49 49 49 48 47 47 46 45 44 42 41 39 38 36
38 40 41 42 43 44 45 46 46 45 44 44 44 43 43 43 43 43 42 42 42 42 42 43 44 46 47 49 49 50 50 49 49 48 48 47 45 44 43 41 40 38
38 40 41 42 44 45 46 47 47 47 47 47 46 45 45 45 44 45 44 43 42 42 43 44 44 45 47 48 50 51 50 50 50 50 49 48 47 46 44 42 41 40
36 38 39 42 44 45 47 48 49 49 49 50 50 49 49 48 47 46 46 46 44 44 44 44 45 45 46 47 49 51 51 51 51 51 50 49 48 47 46 44 43 41
37 36 37 40 42 44 45 47 49 51 51 51 52 53 53 52 50 49 48 48 47 46 45 45 45 44 45 47 48 50 52 52 53 52 52 51 50 49 48 46 45 43
35 35 36 37 40 42 44 44 47 49 51 52 53 54 56 56 55 53 51 51 50 49 48 46 45 44 45 46 48 49 51 52 53 53 53 53 52 51 49 48 46 44
30 33 35 38 40 42 44 45 45 45 48 51 54 55 56 57 57 56 55 54 53 52 50 48 46 45 45 47 48 48 49 51 52 53 53 53 52 52 50 49 48 46
29 31 34 37 40 42 45 46 47 46 46 49 53 56 56 57 58 58 59 59 57 55 52 50 49 47 46 46 47 48 49 50 51 52 53 53 53 52 51 50 49 47
32 32 33 35 37 39 41 42 44 46 47 48 51 54 56 57 58 59 61 62 61 58 55 53 51 49 48 47 47 47 48 49 51 51 52 52 53 53 52 51 50 48
34 33 33 33 34 35 36 38 40 44 47 48 50 53 55 57 58 59 60 62 62 60 58 55 53 52 50 49 48 48 48 49 50 51 51 52 53 53 53 53 51 49
31 32 31 30 30 31 32 36 39 42 46 48 50 52 54 56 57 58 59 60 61 61 59 57 55 54 53 51 50 50 49 49 49 50 51 52 54 54 54 54 52 51
29 29 29 28 28 30 32 34 38 42 45 47 49 51 52 54 56 57 58 59 60 60 60 58 57 57 55 54 53 51 50 49 49 50 51 53 54 55 56 55 54 52
31 29 29 28 27 28 30 32 36 39 42 45 47 49 50 52 54 55 57 58 59 60 59 59 59 59 58 56 54 52 51 50 50 51 52 53 54 55 57 57 55 53
34 32 30 29 27 26 26 29 32 36 40 43 45 47 49 50 52 53 55 56 58 59 59 59 59 58 57 56 55 53 51 50 51 52 53 54 55 56 57 57 56 55
35 35 34 33 30 27 25 26 29 33 37 40 43 45 47 49 50 51 52 54 56 58 59 59 58 57 56 56 55 53 51 50 51 51 53 55 56 56 56 57 57 56
38 37 37 37 36 33 29 26 27 30 33 36 40 42 45 48 50 50 51 52 54 57 58 58 56 55 55 55 55 53 52 51 51 52 53 55 56 57 57 57 58 57
39 39 38 37 37 36 35 31 28 28 29 32 35 39 43 46 47 48 49 50 52 55 56 56 55 55 54 54 54 53 51 50 50 52 54 55 56 58 58 58 58 58
40 41 40 39 37 36 35 35 32 29 29 30 32 36 39 42 44 46 47 49 50 52 54 54 54 54 54 54 53 52 50 50 50 53 55 56 57 58 58 57 57 57
41 41 41 41 39 37 36 35 34 32 30 29 30 33 36 39 42 44 45 47 48 50 51 52 53 53 53 53 52 51 50 50 51 54 56 57 57 57 57 56 56 56
41 42 42 42 41 40 38 36 35 34 31 28 29 31 34 36 39 40 42 45 46 48 50 51 51 51 51 51 50 50 50 51 53 54 56 57 57 57 56 55 55 55
41 42 42 42 42 41 40 38 36 34 32 29 28 29 31 33 35 37 40 42 44 46 47 48 49 50 49 49 49 49 49 52 53 54 55 56 56 56 55 55 54 54
42 41 42 43 43 42 41 40 38 36 34 31 28 27 28 30 32 35 38 40 42 44 45 46 47 48 47 47 47 47 49 51 53 54 55 56 56 55 55 55 54 54
42 42 42 43 44 44 43 41 39 38 36 34 31 28 27 28 29 32 35 37 39 41 42 44 45 46 45 45 45 46 48 52 53 53 54 55 55 55 56 55 54 53
Wind_Direction
247 245 245 244 244 245 245 245 246 246 247 247 248 248 249 249 248 246 246 245 244 243 242 241 241 240 238 237 236 236 236 236 236 237 237 238 239 239 240 240 241 243
249 248 246 245 245 245 244 245 246 247 248 249 250 251 251 251 250 249 247 246 246 245 244 243 243 241 240 238 237 236 236 236 236 236 237 237 238 239 239 240 241 243
252 250 249 248 247 247 247 247 247 248 249 250 251 251 252 251 251 250 249 247 247 246 245 244 244 243 241 240 238 238 237 237 237 237 237 237 238 238 239 239 240 241
258 256 254 253 251 251 250 250 250 250 250 250 250 251 252 252 252 251 250 249 248 247 245 244 244 243 242 240 239 238 238 238 238 238 237 237 237 238 238 238 239 240
262 261 260 259 257 255 253 253 253 253 253 252 252 251 252 252 252 252 251 249 248 247 246 244 243 243 242 241 239 238 238 238 238 237 237 237 237 237 237 237 238 239
266 265 264 263 261 259 258 258 258 257 256 256 255 254 253 253 253 253 252 250 248 247 246 245 243 242 241 241 240 238 238 238 238 237 237 237 237 237 237 237 238 239
272 270 269 268 266 264 264 263 262 261 260 259 258 257 256 254 254 254 254 253 250 248 246 245 243 242 241 241 240 239 238 237 237 237 237 236 236 236 236 237 238 239
277 275 274 272 271 270 270 269 268 266 263 262 262 261 259 257 256 255 255 254 252 249 247 246 244 243 242 242 241 240 238 237 237 237 236 236 236 236 236 236 236 237
284 282 282 280 278 276 275 275 275 272 268 266 265 263 261 260 258 256 255 254 253 251 248 247 245 243 242 241 241 241 239 239 238 238 237 236 236 236 236 235 235 236
291 289 290 288 287 286 284 283 280 277 275 272 268 264 262 261 259 258 256 255 253 252 250 248 246 243 242 241 241 241 241 240 240 239 239 238 237 237 236 236 236 236
292 290 290 289 289 288 288 287 285 281 279 275 270 266 264 262 260 258 256 255 253 253 252 250 247 244 242 241 241 240 241 241 241 241 240 239 239 238 237 237 237 237
301 296 292 290 289 287 286 287 286 282 279 274 270 268 266 263 261 259 257 255 254 253 252 251 249 246 244 243 242 241 240 240 241 241 241 240 239 238 237 237 237 237
306 302 297 292 288 287 287 286 283 280 277 274 271 269 266 263 262 260 259 257 255 253 252 251 250 248 245 242 241 240 239 239 240 240 240 240 239 238 237 237 236 236
303 299 298 294 290 288 287 285 283 280 278 275 272 269 266 264 263 262 260 258 255 253 252 250 249 248 245 242 240 239 238 238 238 239 240 240 239 238 237 236 236 236
314 301 297 296 294 291 289 287 285 282 279 276 272 270 268 266 264 261 259 257 255 253 251 250 249 248 246 244 241 239 237 237 237 237 238 239 239 238 237 236 235 235
337 322 309 301 298 296 293 290 287 284 280 276 272 270 267 265 262 261 259 258 255 253 251 249 249 248 248 246 243 241 239 237 236 236 236 237 238 238 237 235 234 233
350 345 335 322 311 303 298 294 291 286 282 277 273 269 266 263 261 260 259 258 255 253 251 250 250 249 248 247 245 242 240 238 238 237 237 237 237 236 236 236 234 233
348 350 349 345 335 323 311 304 298 290 284 279 274 270 266 263 261 259 258 256 254 252 251 251 251 251 250 248 246 244 241 240 239 239 239 238 237 237 236 235 234 233
342 343 346 348 346 341 332 320 307 296 289 282 277 273 268 264 261 259 257 255 253 252 251 251 251 251 250 248 246 245 243 241 240 240 240 240 239 238 236 234 233 232
338 339 341 342 343 343 342 336 323 308 297 288 281 274 268 265 262 260 257 255 253 252 251 251 252 252 251 249 247 245 244 242 241 242 242 241 240 239 237 235 233 232
336 336 337 338 338 339 340 341 336 325 310 297 286 277 271 267 264 261 259 256 254 253 252 252 252 251 250 248 247 245 244 243 241 241 241 241 240 239 238 236 234 233
335 335 334 334 335 334 335 337 338 335 325 308 292 282 275 270 265 262 260 258 256 254 252 252 252 250 248 248 246 245 244 243 241 240 240 240 239 238 237 236 234 233
333 333 332 331 331 330 330 331 333 334 332 321 304 291 281 274 270 267 264 261 258 255 253 253 252 250 248 247 246 244 243 242 240 239 238 238 238 238 237 235 234 233
328 328 329 329 328 327 326 326 327 329 330 326 314 301 290 282 277 272 267 263 260 258 256 254 253 252 250 248 247 245 243 242 241 239 238 237 236 236 235 234 233 231
323 323 324 324 324 323 322 321 321 323 324 324 318 308 298 289 281 274 270 266 263 260 258 256 254 253 251 249 247 245 244 242 241 238 237 236 235 234 233 232 230 229
320 320 319 319 319 318 318 317 317 318 318 319 318 312 303 295 287 280 275 271 267 263 260 257 255 253 251 249 247 245 243 242 240 238 236 235 234 232 231 229 228 226